Location: Izdebno
(52.6670°N, 16.2170°E)
Time: 19:48:48
(UTC+01:00)

Vanguard 1 Rocket - Visible Passes

Search period start: 07 February 2023 00:00
Search period end: 17 February 2023 00:00
Orbit: 651 x 4224 km, 34.3° (Epoch: 06 February)

Date Brightness Start Highest point End Pass type
(mag) Time Alt. Az. Time Alt. Az. Time Alt. Az.
07 Feb 12.3 19:07:10 10° WSW 19:13:50 12° SW 19:21:02 10° SSW visible
08 Feb 12.2 17:49:53 10° WSW 18:01:16 19° SW 18:15:14 10° S visible
10 Feb 12.3 17:54:55 10° WSW 18:02:53 14° SW 18:12:09 10° SSW visible
